Change the Weather History Date:

Wednesday, May 29, 2013

  Actual Average Record
Temperature  
Mean Temperature 73 °F -  
Max Temperature 84 °F 75 °F 90 °F (2006)
Min Temperature 63 °F 58 °F 44 °F (2008)
Cooling Degree Days 8    
Growing Degree Days 23 (Base 50)    
Moisture  
Dew Point 65 °F    
Average Humidity 80    
Maximum Humidity 97    
Minimum Humidity 57    
Precipitation  
Precipitation 0.33 in - - ()
Sea Level Pressure  
Sea Level Pressure 29.91 in    
Wind  
Wind Speed 17 mph (SW)    
Max Wind Speed 29 mph    
Max Gust Speed 38 mph    
Visibility 8 miles    
Events Fog , Rain , Thunderstorm    
Averages and records for this station are not official NWS values.
T = Trace of Precipitation, MM = Missing Value Source: NWS Daily Summary

Daily Weather History Graph

Daily Weather History Graph

Search for Another Location

Airport or City:

Trip Planner

Search our weather history database for the weather conditions in past years. The results will help you decide how hot, cold, wet, or windy it might be!

Date:

Astronomy

May. 29, 2013 Rise Set
Actual Time 5:28 AM CDT 8:17 PM CDT
Civil Twilight 4:56 AM CDT 8:50 PM CDT
Nautical Twilight 4:15 AM CDT 9:30 PM CDT
Astronomical Twilight 3:29 AM CDT 10:17 PM CDT
Moon No Moon Rise 10:28 AM CDT (5/29)
Length of Visible Light 15h 53m
Length of Day
14h 49m
Waning Gibbous, 73% of the Moon is Illuminated
May 29
Waning Gibbous
May 31
Last Quarter
Jun 8
New
Jun 16
First Quarter
Jun 23
Full

Hourly Weather History & Observations

Time (CDT) Temp. Heat Index Dew Point Humidity Pressure Visibility Wind Dir Wind Speed Gust Speed Precip Events Conditions
12:26 AM 71.6 °F - 68.0 °F 88% 29.89 in 10.0 mi South 10.4 mph - 0.00 in Rain , Thunderstorm Light Thunderstorms and Rain
12:38 AM 69.8 °F - 66.2 °F 88% 29.92 in 2.0 mi West 28.8 mph 38.0 mph 0.08 in Rain , Thunderstorm Light Thunderstorms and Rain
12:40 AM 68.0 °F - 64.4 °F 88% 29.93 in 1.0 mi West 27.6 mph 38.0 mph 0.15 in Rain , Thunderstorm Heavy Thunderstorms and Rain
12:43 AM 66.2 °F - 64.4 °F 94% 29.92 in 0.5 mi West 19.6 mph 38.0 mph 0.24 in Fog , Rain , Thunderstorm Heavy Thunderstorms and Rain
12:48 AM 66.2 °F - 64.4 °F 94% 29.92 in 0.5 mi West 20.7 mph 26.5 mph 0.31 in Fog , Rain , Thunderstorm Heavy Thunderstorms and Rain
12:56 AM 65.8 °F - 64.9 °F 97% 29.88 in 2.5 mi WNW 17.3 mph 26.5 mph 0.31 in Rain , Thunderstorm Light Thunderstorms and Rain
12:58 AM 66.2 °F - 64.4 °F 94% 29.91 in 4.0 mi WNW 16.1 mph 26.5 mph 0.00 in Rain , Thunderstorm Light Thunderstorms and Rain
1:19 AM 66.2 °F - 64.4 °F 94% 29.91 in 10.0 mi WNW 12.7 mph - 0.00 in Rain Light Rain
1:56 AM 65.8 °F - 63.9 °F 93% 29.87 in 10.0 mi South 6.9 mph - 0.00 in   Partly Cloudy
2:56 AM 63.9 °F - 63.0 °F 97% 29.88 in 10.0 mi SSW 11.5 mph - 0.00 in   Partly Cloudy
3:12 AM 64.4 °F - 62.6 °F 94% 29.91 in 7.0 mi South 13.8 mph - 0.01 in Rain Light Rain
3:56 AM 63.9 °F - 61.9 °F 93% 29.90 in 10.0 mi SW 13.8 mph - 0.02 in   Mostly Cloudy
4:56 AM 64.9 °F - 61.0 °F 87% 29.93 in 10.0 mi SW 10.4 mph - 0.00 in Rain Light Rain
5:05 AM 66.2 °F - 60.8 °F 83% 29.99 in 10.0 mi WNW 15.0 mph 29.9 mph 0.00 in Thunderstorm Mostly Cloudy
5:17 AM 64.4 °F - 60.8 °F 88% 29.98 in 10.0 mi West 12.7 mph - 0.00 in Rain Light Rain
5:56 AM 63.9 °F - 61.9 °F 93% 29.92 in 10.0 mi South 8.1 mph - 0.00 in   Overcast
6:56 AM 64.9 °F - 61.9 °F 90% 29.91 in 10.0 mi South 9.2 mph - N/A   Partly Cloudy
7:56 AM 70.9 °F - 63.0 °F 76% 29.91 in 10.0 mi South 12.7 mph - N/A   Clear
8:56 AM 73.9 °F - 64.9 °F 73% 29.92 in 10.0 mi SSW 20.7 mph 27.6 mph N/A   Clear
9:56 AM 75.9 °F - 66.9 °F 74% 29.92 in 10.0 mi SSW 23.0 mph - N/A   Clear
10:56 AM 79.9 °F - 68.9 °F 69% 29.92 in 10.0 mi SSW 21.9 mph - N/A   Clear
11:56 AM 81.0 °F 83.8 °F 68.0 °F 65% 29.93 in 10.0 mi SW 18.4 mph 21.9 mph N/A   Clear
12:56 PM 81.9 °F 85.6 °F 70.0 °F 67% 29.93 in 10.0 mi SW 16.1 mph - N/A   Scattered Clouds
1:56 PM 81.9 °F 85.2 °F 68.9 °F 65% 29.92 in 10.0 mi SSW 20.7 mph 25.3 mph N/A   Scattered Clouds
2:56 PM 82.9 °F 85.8 °F 68.0 °F 60% 29.90 in 10.0 mi SSW 17.3 mph - N/A   Mostly Cloudy
3:56 PM 83.8 °F 86.5 °F 66.9 °F 57% 29.89 in 10.0 mi SSW 19.6 mph - N/A   Mostly Cloudy
4:56 PM 82.9 °F 85.8 °F 68.0 °F 60% 29.88 in 10.0 mi South 21.9 mph - N/A   Partly Cloudy
5:56 PM 82.9 °F 85.4 °F 66.9 °F 58% 29.86 in 10.0 mi South 21.9 mph 27.6 mph N/A   Partly Cloudy
6:56 PM 81.0 °F 84.1 °F 68.9 °F 67% 29.87 in 10.0 mi South 19.6 mph - N/A   Partly Cloudy
7:56 PM 77.0 °F - 68.0 °F 74% 29.87 in 10.0 mi South 12.7 mph - N/A   Clear
8:56 PM 74.8 °F - 66.9 °F 76% 29.86 in 10.0 mi SSE 15.0 mph - N/A   Clear
9:56 PM 74.8 °F - 65.8 °F 73% 29.88 in 10.0 mi South 13.8 mph - N/A   Clear
10:56 PM 73.9 °F - 64.9 °F 73% 29.91 in 10.0 mi South 16.1 mph - N/A   Partly Cloudy
11:56 PM 72.9 °F - 65.8 °F 79% 29.92 in 10.0 mi South 15.0 mph - N/A   Clear